2018-020D (43218 NORAD) Tracking and Keplerian Element Data

This shows tracking and keplerian element data for the satellite.

Feedback or suggestion? Click here.




ElementValue
Catalog43218
Name2018-020D
Epoch Orbit0
Epoch Day53.65952442
Epoch Year2018
RAAN60.5371
Inclination97.2681
Eccentricity0.0226656
Argument of Perigee263.4923
Mean Anonmoly209.9861
Mean Motion15.68287237
Decay Rate-7.07E-06
L11 43218U 18020D 18053.65952442 -.00000707 22367-5 00000+0 0 9992
L22 43218 97.2681 60.5371 0226656 263.4923 209.9861 15.68287237 05

Live tracking and technical data element details for 2018-020D (NORAD 43218). 2018-020D can be tracked NOW for your location showing map with azimuth and elevation plus other details from your city location.

Track the satellite on the map from your city or location and see movement details for azimuth, elevation, latitude, longitude, range, height, and movement on the map or in text.







IsCatalogInMostPopularTable: catalog: 43218, numindb: 91
Update: records affected: 1



GetName: 43218 2018-020D

Hit Count: updated at: Thu, 15 Nov 2018 04:51:52 GMT